Location: Kumla
(59.1265°N, 15.1401°E)
Time: 08:52:14
(UTC+01:00)

Transit 2A - Pass Details

Date: 09 December 2023
Orbit: 600 x 953 km, 66.7° (Epoch: 22 February)

Event Time Altitude Azimuth Distance (km) Brightness Sun altitude
Rises 15:23:09 0° 216° (SW) 3,108 11.3 -2.7°
Reaches altitude 10° 15:25:36 10° 213° (SSW) 2,139 10.0 -3.0°
Maximum altitude 15:30:20 64° 133° (SE) 723 5.9 -3.4°
Drops below altitude 10° 15:34:45 10° 52° (NE) 1,996 7.5 -3.8°
Enters shadow 15:35:49 - 51° (NE) 2,421 7.9 -3.9°
Sets 15:36:58 0° 50° (NE) 2,882 - -4.1°
